Weather History for Covington, KY

Change the Weather History Date:

Monday, December 24, 2012

  Actual Average Record
Temperature  
Mean Temperature 37 °F 32 °F  
Max Temperature 43 °F 39 °F 70 °F (1964)
Min Temperature 31 °F 25 °F -12 °F (1983)
Degree Days  
Heating Degree Days 28 33  
Month to date heating degree days 513 724  
Since 1 July heating degree days 1619 1684  
Cooling Degree Days 0 0  
Month to date cooling degree days 0 0  
Year to date cooling degree days 1439 1121  
Moisture  
Dew Point 34 °F    
Average Humidity 88    
Maximum Humidity 100    
Minimum Humidity 75    
Precipitation  
Precipitation 0.06 in 0.11 in 1.68 in (1875)
Month to date precipitation 4.66 2.61  
Year to date precipitation 37.69 41.76  
Snow  
Snow 0.00 in 0.20 in 1.80 in (1980)
Month to date snowfall 0.9 3.4  
Since 1 July snowfall 0.9 4.2  
Snow Depth 0.00 in    
Sea Level Pressure  
Sea Level Pressure 29.86 in    
Wind  
Wind Speed 7 mph (North)    
Max Wind Speed 20 mph    
Max Gust Speed 22 mph    
Visibility 3 miles    
Events Fog , Rain    
T = Trace of Precipitation, MM = Missing Value Source: NWS Daily Summary

Daily Weather History Graph

Daily Weather History Graph

Search for Another Location

Airport:

Trip Planner

Search our weather history database for the weather conditions in past years. The results will help you decide how hot, cold, wet, or windy it might be!

Date:

Astronomy

Dec. 24, 2012 Rise Set
Actual Time 7:55 AM EST 5:21 PM EST
Civil Twilight 7:25 AM EST 5:51 PM EST
Nautical Twilight 6:52 AM EST 6:25 PM EST
Astronomical Twilight 6:19 AM EST 6:57 PM EST
Moon 2:47 PM EST (12/24) 4:34 AM EST (12/24)
Length of Visible Light 10h 25m
Length of Day
9h 25m
Waxing Gibbous, 88% of the Moon is Illuminated
Dec 24
Waxing Gibbous
Dec 28
Full
Jan 4
Last Quarter
Jan 11
New
Jan 18
First Quarter

Hourly Weather History & Observations

Time (EST) Temp. Windchill Dew Point Humidity Pressure Visibility Wind Dir Wind Speed Gust Speed Precip Events Conditions
12:52 AM 34.0 °F 31.0 °F 27.0 °F 75% 29.92 in 10.0 mi East 3.5 mph - N/A   Partly Cloudy
1:52 AM 34.0 °F 31.0 °F 28.0 °F 79% 29.91 in 10.0 mi East 3.5 mph - N/A   Scattered Clouds
2:52 AM 34.0 °F 31.0 °F 28.0 °F 79% 29.90 in 10.0 mi Variable 3.5 mph - N/A   Mostly Cloudy
3:52 AM 33.1 °F 28.7 °F 28.0 °F 82% 29.88 in 10.0 mi ENE 4.6 mph - N/A   Overcast
4:34 AM 33.8 °F 28.6 °F 28.4 °F 81% 29.85 in 10.0 mi East 5.8 mph - N/A   Overcast
4:52 AM 34.0 °F 27.2 °F 28.9 °F 82% 29.86 in 10.0 mi East 8.1 mph - N/A   Overcast
5:26 AM 33.8 °F 28.6 °F 30.2 °F 87% 29.84 in 9.0 mi East 5.8 mph - N/A   Overcast
5:52 AM 34.0 °F 28.0 °F 30.9 °F 89% 29.84 in 1.0 mi East 6.9 mph - N/A   Overcast
6:38 AM 33.8 °F 28.6 °F 33.8 °F 100% 29.83 in 0.1 mi ENE 5.8 mph - N/A Fog Fog
6:52 AM 34.0 °F 28.0 °F 34.0 °F 100% 29.84 in 0.1 mi NE 6.9 mph - N/A Fog Fog
7:52 AM 35.1 °F 31.0 °F 35.1 °F 100% 29.82 in 0.1 mi ENE 4.6 mph - N/A Fog Fog
8:23 AM 35.6 °F 30.7 °F 35.6 °F 100% 29.79 in 0.5 mi East 5.8 mph - 0.00 in   Light Drizzle
8:49 AM 35.6 °F 30.7 °F 35.6 °F 100% 29.80 in 1.0 mi East 5.8 mph - 0.00 in   Overcast
8:52 AM 36.0 °F 32.1 °F 35.1 °F 97% 29.81 in 1.0 mi East 4.6 mph - 0.00 in   Overcast
9:11 AM 35.6 °F 31.7 °F 35.6 °F 100% 29.80 in 1.5 mi East 4.6 mph - 0.00 in   Light Drizzle
9:42 AM 35.6 °F 32.8 °F 35.6 °F 100% 29.80 in 0.5 mi ENE 3.5 mph - 0.02 in Rain Rain
9:52 AM 36.0 °F 32.1 °F 36.0 °F 100% 29.81 in 0.5 mi East 4.6 mph - 0.04 in Rain Light Rain
10:11 AM 37.4 °F - 35.6 °F 93% 29.81 in 0.5 mi Calm Calm - 0.00 in Rain Light Rain
10:52 AM 37.0 °F 34.5 °F 36.0 °F 96% 29.83 in 0.5 mi ENE 3.5 mph - 0.01 in   Drizzle
11:52 AM 37.9 °F - 37.0 °F 97% 29.80 in 0.2 mi Calm Calm - 0.00 in   Light Drizzle
12:52 PM 39.0 °F - 37.9 °F 96% 29.78 in 0.2 mi Calm Calm - 0.01 in   Overcast
1:52 PM 42.1 °F 37.1 °F 41.0 °F 96% 29.78 in 0.2 mi WSW 8.1 mph - N/A   Overcast
2:52 PM 42.1 °F 38.4 °F 41.0 °F 96% 29.78 in 0.2 mi WSW 5.8 mph - N/A   Overcast
3:52 PM 42.1 °F 38.4 °F 42.1 °F 100% 29.79 in 0.0 mi SW 5.8 mph - N/A Fog Fog
4:31 PM 42.8 °F 39.3 °F 42.8 °F 100% 29.79 in 0.1 mi West 5.8 mph - N/A   Overcast
4:52 PM 43.0 °F 37.7 °F 42.1 °F 97% 29.82 in 0.1 mi West 9.2 mph - N/A   Overcast
5:12 PM 42.8 °F 36.6 °F 42.8 °F 100% 29.81 in 2.0 mi West 11.5 mph - N/A   Overcast
5:39 PM 42.8 °F 38.6 °F 42.8 °F 100% 29.82 in 0.8 mi West 6.9 mph - N/A   Overcast
5:52 PM 42.1 °F 36.6 °F 41.0 °F 96% 29.84 in 2.0 mi West 9.2 mph - N/A   Overcast
6:14 PM 42.8 °F 37.0 °F 41.0 °F 93% 29.84 in 3.0 mi WNW 10.4 mph - N/A   Overcast
6:52 PM 41.0 °F 32.5 °F 37.9 °F 89% 29.88 in 4.0 mi WNW 17.3 mph - N/A   Overcast
7:29 PM 37.4 °F 28.2 °F 33.8 °F 87% 29.89 in 4.0 mi West 16.1 mph - N/A   Overcast
7:52 PM 37.0 °F 29.3 °F 33.1 °F 86% 29.92 in 5.0 mi West 11.5 mph - N/A   Overcast
8:31 PM 35.6 °F 28.0 °F 30.2 °F 81% 29.93 in 5.0 mi NW 10.4 mph - N/A   Haze
8:52 PM 35.1 °F 27.4 °F 30.9 °F 85% 29.95 in 5.0 mi NW 10.4 mph - N/A   Overcast
9:52 PM 33.1 °F 23.9 °F 28.9 °F 85% 29.98 in 5.0 mi WNW 12.7 mph - N/A   Overcast
10:52 PM 32.0 °F 21.2 °F 28.0 °F 85% 30.01 in 5.0 mi NW 16.1 mph - N/A   Overcast
11:40 PM 32.0 °F 23.6 °F 26.6 °F 80% 30.00 in 6.0 mi WNW 10.4 mph - N/A   Haze
11:52 PM 32.0 °F 22.1 °F 26.1 °F 79% 30.01 in 7.0 mi NW 13.8 mph - N/A   Overcast